This is the latest recevied weather packets stored in our database for station/object CRYC. If no packets are shown the sender has not sent any weather packets the latest 10 day(s).
| Time | Temp. | Humidity | Pressure | Rain* | Wind** | Luminosity | Snow |
|---|---|---|---|---|---|---|---|
| 1778144435 | 11.67° C | - | - | 0 mm | 0.45 m/s, 27° | - | - |
| 1778143831 | 12.22° C | - | - | 0 mm | 1.34 m/s, 68° | - | - |
| 1778143227 | 12.22° C | - | - | 0 mm | 0 m/s | - | - |
| 1778142614 | 12.22° C | - | - | 0 mm | 1.79 m/s, 25° | - | - |
| 1778142012 | 12.22° C | - | - | 0 mm | 2.68 m/s, 51° | - | - |
| 1778141404 | 12.22° C | - | - | 0 mm | 3.13 m/s, 100° | - | - |
| 1778140802 | 12.78° C | - | - | 0 mm | 1.79 m/s, 41° | - | - |
| 1778140189 | 12.78° C | - | - | 0 mm | 2.68 m/s, 34° | - | - |
| 1778139584 | 12.78° C | - | - | 0 mm | 3.13 m/s, 38° | - | - |
| 1778138974 | 12.78° C | - | - | 0 mm | 3.58 m/s, 45° | - | - |
| 1778138368 | 13.33° C | - | - | 0 mm | 2.24 m/s, 42° | - | - |
| 1778137762 | 13.33° C | - | - | 0 mm | 3.58 m/s, 66° | - | - |
| 1778137160 | 13.33° C | - | - | 0 mm | 2.24 m/s, 58° | - | - |
| 1778136552 | 13.33° C | - | - | 0 mm | 2.24 m/s, 1° | - | - |
| 1778135946 | 13.33° C | - | - | 0 mm | 1.34 m/s, 48° | - | - |
| 1778135340 | 13.33° C | - | - | 0 mm | 1.79 m/s, 89° | - | - |
| 1778134745 | 13.89° C | - | - | 0 mm | 1.79 m/s, 14° | - | - |
| 1778134129 | 13.89° C | - | - | 0 mm | 0.89 m/s, 8° | - | - |
| 1778133519 | 14.44° C | - | - | 0 mm | 0.45 m/s, 347° | - | - |
| 1778132912 | 15° C | - | - | 0 mm | 0 m/s | - | - |
| 1778132306 | 15° C | - | - | 0 mm | 0.89 m/s, 357° | - | - |
| 1778131701 | 15° C | - | - | 0 mm | 0.45 m/s, 8° | - | - |
| 1778131092 | 15.56° C | - | - | 0 mm | 2.24 m/s, 63° | - | - |
| 1778130485 | 16.67° C | - | - | 0 mm | 0.45 m/s, 340° | - | - |
| 1778129878 | 17.22° C | - | - | 0 mm | 1.79 m/s, 39° | - | - |
* Rain latest hour (hover to see other rain measurements)
** Current wind speed in m/s (hover to see current wind gust speed)